Weather History for Ukiah, CA

Change the Weather History Date:

Tuesday, February 12, 2013

  Actual Average Record
Temperature  
Mean Temperature 49 °F 49 °F  
Max Temperature 66 °F 60 °F 81 °F (1971)
Min Temperature 32 °F 39 °F 22 °F (1948)
Degree Days  
Heating Degree Days 16 16  
Month to date heating degree days 204 197  
Since 1 July heating degree days 1872 1997  
Cooling Degree Days 0 0  
Month to date cooling degree days 0 0  
Year to date cooling degree days 0 0  
Moisture  
Dew Point 35 °F    
Average Humidity 62    
Maximum Humidity 92    
Minimum Humidity 32    
Precipitation  
Precipitation 0.00 in 0.23 in 3.77 in (1925)
Month to date precipitation 0.18 2.50  
Year to date precipitation 1.43 9.51  
Since 1 July precipitation 24.13 23.48  
Snow  
Snow 0.00 in - - ()
Month to date snowfall 0.0  
Since 1 July snowfall 0.0  
Snow Depth 0.00 in    
Sea Level Pressure  
Sea Level Pressure 30.31 in    
Wind  
Wind Speed 1 mph (NNW)    
Max Wind Speed 12 mph    
Max Gust Speed 15 mph    
Visibility 10 miles    
Events      
T = Trace of Precipitation, MM = Missing Value Source: NWS Daily Summary

Daily Weather History Graph

Daily Weather History Graph

Search for Another Location

Airport:

Trip Planner

Search our weather history database for the weather conditions in past years. The results will help you decide how hot, cold, wet, or windy it might be!

Date:

Astronomy

Feb. 12, 2013 Rise Set
Actual Time 7:07 AM PST 5:47 PM PST
Civil Twilight 6:40 AM PST 6:14 PM PST
Nautical Twilight 6:08 AM PST 6:45 PM PST
Astronomical Twilight 5:37 AM PST 7:17 PM PST
Moon 8:09 AM PST (2/12) 8:51 PM PST (2/12)
Length of Visible Light 11h 34m
Length of Day
10h 39m
Waxing Crescent, 8% of the Moon is Illuminated
Feb 12
Waxing Crescent
Feb 17
First Quarter
Feb 25
Full
Mar 4
Last Quarter
Mar 11
New

Hourly Weather History & Observations

Time (PST) Temp. Dew Point Humidity Pressure Visibility Wind Dir Wind Speed Gust Speed Precip Events Conditions
12:56 AM 39.0 °F 35.1 °F 86% 30.24 in 10.0 mi Calm Calm - N/A   Clear
1:56 AM 37.9 °F 34.0 °F 86% 30.25 in 10.0 mi Calm Calm - N/A   Clear
2:56 AM 37.0 °F 34.0 °F 89% 30.25 in 8.0 mi Calm Calm - N/A   Clear
3:56 AM 36.0 °F 33.1 °F 89% 30.26 in 10.0 mi Calm Calm - N/A   Clear
4:56 AM 33.1 °F 30.9 °F 92% 30.28 in 10.0 mi Calm Calm - N/A   Clear
5:56 AM 34.0 °F 30.9 °F 89% 30.30 in 10.0 mi Calm Calm - 0.01 in   Clear
6:56 AM 32.0 °F 30.0 °F 92% 30.33 in 10.0 mi Calm Calm - N/A   Clear
7:56 AM 34.0 °F 30.9 °F 89% 30.35 in 10.0 mi Calm Calm - N/A   Clear
8:56 AM 39.9 °F 36.0 °F 86% 30.36 in 10.0 mi Calm Calm - N/A   Clear
9:56 AM 46.9 °F 37.0 °F 68% 30.36 in 10.0 mi Calm Calm - N/A   Clear
10:56 AM 52.0 °F 37.0 °F 57% 30.36 in 10.0 mi Calm Calm - N/A   Clear
11:56 AM 55.9 °F 36.0 °F 47% 30.35 in 10.0 mi Calm Calm - N/A   Clear
12:56 PM 61.0 °F 34.0 °F 36% 30.32 in 10.0 mi Calm Calm - N/A   Clear
1:56 PM 64.0 °F 36.0 °F 35% 30.30 in 10.0 mi Calm Calm - N/A   Clear
2:56 PM 66.0 °F 35.1 °F 32% 30.29 in 10.0 mi Calm Calm - N/A   Clear
3:56 PM 64.0 °F 37.0 °F 37% 30.29 in 10.0 mi NNW 6.9 mph - N/A   Clear
4:56 PM 61.0 °F 36.0 °F 39% 30.29 in 10.0 mi North 6.9 mph - N/A   Clear
5:56 PM 54.0 °F 37.9 °F 55% 30.29 in 10.0 mi Calm Calm - N/A   Clear
6:56 PM 50.0 °F 37.9 °F 63% 30.30 in 10.0 mi Calm Calm - N/A   Clear
7:56 PM 46.9 °F 37.9 °F 71% 30.32 in 8.0 mi Calm Calm - N/A   Clear
8:56 PM 46.0 °F 37.0 °F 71% 30.33 in 9.0 mi Calm Calm - N/A   Clear
9:56 PM 44.1 °F 37.0 °F 76% 30.34 in 10.0 mi Calm Calm - N/A   Clear
10:56 PM 39.9 °F 35.1 °F 83% 30.34 in 10.0 mi Calm Calm - N/A   Clear
11:56 PM 39.0 °F 35.1 °F 86% 30.35 in 10.0 mi Calm Calm - N/A   Clear